Flag for Faroe Islands Weather past 2 weeks in Tórshavn, Faroe Islands, Faroe Islands

Now
48 °F

Sprinkles. Partly sunny.


Feels Like: 42 °F
Forecast: 50 / 54 °F
Wind: 16 mph from North

Location: Soervaag / Vagar

Current Time: Aug 21, 2014 at 7:40:01 PM

Latest Report: Aug 21, 2014 at 6:50 PM


Visibility: N/A

Pressure: 29.89 "Hg

Humidity: 82%

Dew point: 43 °F

Location of TórshavnLocation

Historic Weather in Tórshavn — Graph

°F

Tórshavn temperature yesterday

Maximum temperature yesterday: 52 °F (at 6:50 PM)
Minimum temperature yesterday: 45 °F (at 4:20 AM)
Average temperature yesterday: 48 °F

Past Weeks' High & Low Weather Summary

 TemperatureHumidityPressure
High61 °F (Aug 11, 11:24 AM)100% (Aug 6, 8:20 PM)30.01 "Hg (Aug 6, 8:20 PM)
Low45 °F (Aug 18, 4:20 AM)63% (Aug 11, 9:50 AM)29.27 "Hg (Aug 16, 11:50 AM)
Average52 °F87%29.68 "Hg
* Reported Aug 6 6:20 PM — Aug 21 6:20 PM, Tórshavn, Weather by CustomWeather, © 2014

Note: Actual official high and low records may vary slightly from our data, if they occured in-between our weather recording intervals... More about our weather records

Advertising

Tórshavn weather history for previous 24 hours

 ConditionsComfort  
Time TempWeatherWind HumidityBarometerVisibility
6:20 PM
Aug 21
50 °FSprinkles. Partly sunny.16 mph76%29.89 "HgN/A
5:50 PM50 °FOvercast.16 mph71%29.89 "HgN/A
5:20 PM48 °FSprinkles. Partly sunny.16 mph76%29.89 "HgN/A
4:50 PM50 °FDrizzle. Partly sunny.20 mph71%29.89 "HgN/A
4:20 PM50 °FPartly sunny.21 mph71%29.89 "HgN/A
3:50 PM50 °FPartly sunny.20 mph76%29.89 "HgN/A
3:20 PM50 °FPartly sunny.20 mph71%29.89 "HgN/A
2:50 PM50 °FPassing clouds.20 mph76%29.89 "HgN/A
2:20 PM52 °FScattered clouds.20 mph67%29.89 "HgN/A
1:50 PM50 °FPartly sunny.21 mph71%29.89 "HgN/A
1:20 PM50 °FSprinkles. Broken clouds.22 mph76%29.89 "HgN/A
12:50 PM50 °FSprinkles. Partly sunny.18 mph71%29.89 "HgN/A
12:20 PM48 °FSprinkles. Partly sunny.17 mph82%29.89 "HgN/A
11:50 AM50 °FSprinkles. Partly sunny.15 mph76%29.89 "HgN/A
11:20 AM50 °FScattered clouds.17 mph76%29.89 "HgN/A
10:50 AM50 °FPartly sunny.16 mph76%29.89 "HgN/A
10:20 AM50 °FCool.20 mph76%29.86 "HgN/A
9:50 AM50 °FSprinkles. Broken clouds.15 mph71%29.86 "HgN/A
9:20 AM50 °FSprinkles. Broken clouds.15 mph76%29.86 "HgN/A
8:50 AM48 °FSprinkles. Partly sunny.16 mph82%29.86 "HgN/A
8:20 AM48 °FSprinkles. Partly sunny.18 mph82%29.86 "HgN/A
7:50 AM48 °FSprinkles. Partly sunny.16 mph82%29.86 "HgN/A
7:20 AM48 °FPassing clouds.15 mph82%29.86 "HgN/A
6:50 AM48 °FPassing clouds.14 mph82%29.83 "HgN/A
6:20 AM46 °FSprinkles. Passing clouds.17 mph82%29.86 "HgN/A
5:50 AM46 °FSprinkles. Passing clouds.15 mph82%29.86 "HgN/A
5:20 AM48 °FSprinkles. Passing clouds.20 mph82%29.86 "HgN/A
4:50 AM48 °FSprinkles. Passing clouds.16 mph82%29.86 "HgN/A
4:20 AM48 °FSprinkles. Passing clouds.20 mph82%29.86 "HgN/A
3:50 AM46 °FSprinkles. Passing clouds.17 mph87%29.86 "HgN/A
3:20 AM48 °FSprinkles. Passing clouds.13 mph82%29.86 "HgN/A
2:50 AM48 °FSprinkles. Passing clouds.8 mph82%29.86 "HgN/A
2:20 AM48 °FPassing clouds.8 mph82%29.86 "HgN/A
1:50 AM48 °FPassing clouds.9 mph76%29.86 "HgN/A
1:20 AM48 °FPassing clouds.6 mph82%29.86 "HgN/A
12:50 AM48 °FPassing clouds.9 mph87%29.86 "HgN/A
12:20 AM48 °FPassing clouds.9 mph87%29.86 "HgN/A
11:50 PM
Aug 20
48 °FSprinkles. Passing clouds.8 mph87%29.86 "HgN/A
11:20 PM48 °FPassing clouds.8 mph87%29.86 "HgN/A
10:50 PM48 °FSprinkles. Partly sunny.6 mph87%29.86 "HgN/A
10:20 PM48 °FPartly sunny.7 mph82%29.86 "HgN/A
9:50 PM48 °FPartly sunny.7 mph82%29.86 "HgN/A
9:20 PM46 °FPartly sunny.6 mph87%29.86 "HgN/A
8:50 PM48 °FPartly sunny.6 mph82%29.86 "HgN/A
8:20 PM48 °FDrizzle. Partly sunny.6 mph82%29.86 "HgN/A
7:50 PM50 °FPartly sunny.13 mph76%29.86 "HgN/A
7:20 PM50 °FPartly sunny.9 mph76%29.86 "HgN/A
Weather by CustomWeather, © 2014

See weather overviewHow to use our weather pages